| time (UTC) | temp F | wind direction | speed MPH | gust MPH | rain 1hr in | rain 24hr in | rain mn in | humidity % | barometer mb |
| 20260506115017 | 42 | 0 | 0.0 | 0.0 | 0.00 | 0.00 | 0.00 | 94 | 1018.6 |
| 20260506114541 | 42 | 0 | 0.0 | 0.0 | 0.00 | 0.00 | 0.00 | 94 | 1018.5 |
| 20260506114019 | 43 | 0 | 0.0 | 0.0 | 0.00 | 0.00 | 0.00 | 94 | 1018.5 |
| 20260506113518 | 43 | 0 | 0.0 | 0.0 | 0.00 | 0.00 | 0.00 | 94 | 1018.6 |
| 20260506113041 | 42 | 0 | 0.0 | 0.0 | 0.00 | 0.00 | 0.00 | 94 | 1018.6 |
| 20260506112520 | 43 | 0 | 0.0 | 0.0 | 0.00 | 0.00 | 0.00 | 94 | 1018.6 |
| 20260506112019 | 43 | 0 | 0.0 | 0.0 | 0.00 | 0.00 | 0.00 | 94 | 1018.7 |
| 20260506111545 | 44 | 0 | 0.0 | 0.0 | 0.00 | 0.00 | 0.00 | 94 | 1018.6 |
| 20260506111019 | 44 | 0 | 0.0 | 0.0 | 0.00 | 0.00 | 0.00 | 94 | 1018.7 |
| 20260506110519 | 44 | 0 | 0.0 | 0.0 | 0.00 | 0.00 | 0.00 | 94 | 1018.6 |
| 20260506110035 | 44 | 0 | 0.0 | 0.0 | 0.00 | 0.00 | 0.00 | 95 | 1018.6 |
| 20260506105522 | 43 | 0 | 0.0 | 0.0 | 0.00 | 0.00 | 0.00 | 94 | 1018.7 |
| 20260506105017 | 43 | 0 | 0.0 | 0.0 | 0.00 | 0.00 | 0.00 | 94 | 1018.6 |
| 20260506104545 | 43 | 0 | 0.0 | 0.0 | 0.00 | 0.00 | 0.00 | 94 | 1018.6 |
| 20260506104024 | 43 | 0 | 0.0 | 0.0 | 0.00 | 0.00 | 0.00 | 94 | 1018.6 |
| 20260506103522 | 44 | 0 | 0.0 | 0.0 | 0.00 | 0.00 | 0.00 | 94 | 1018.5 |
| 20260506103046 | 44 | 0 | 0.0 | 0.0 | 0.00 | 0.00 | 0.00 | 94 | 1018.5 |
| 20260506102522 | 44 | 0 | 0.0 | 0.0 | 0.00 | 0.00 | 0.00 | 94 | 1018.6 |
| 20260506102021 | 44 | 0 | 0.0 | 0.0 | 0.00 | 0.00 | 0.00 | 94 | 1018.6 |
| 20260506101541 | 44 | 0 | 0.0 | 0.0 | 0.00 | 0.00 | 0.00 | 93 | 1018.6 |
| 20260506101018 | 45 | 0 | 0.0 | 0.0 | 0.00 | 0.00 | 0.00 | 94 | 1018.6 |
| 20260506100520 | 44 | 0 | 0.0 | 0.0 | 0.00 | 0.00 | 0.00 | 94 | 1018.6 |
| 20260506100049 | 44 | 0 | 0.0 | 0.0 | 0.00 | 0.00 | 0.00 | 94 | 1018.6 |
| 20260506095519 | 44 | 0 | 0.0 | 0.0 | 0.00 | 0.00 | 0.00 | 94 | 1018.6 |
| 20260506095020 | 44 | 0 | 0.0 | 0.0 | 0.00 | 0.00 | 0.00 | 94 | 1018.6 |
| 20260506094540 | 44 | 0 | 0.0 | 0.0 | 0.00 | 0.00 | 0.00 | 94 | 1018.6 |
| 20260506094018 | 44 | 0 | 0.0 | 0.0 | 0.00 | 0.00 | 0.00 | 94 | 1018.6 |
| 20260506093521 | 44 | 0 | 0.0 | 0.0 | 0.00 | 0.00 | 0.00 | 93 | 1018.6 |
| 20260506093036 | 45 | 0 | 0.0 | 0.0 | 0.00 | 0.00 | 0.00 | 94 | 1018.5 |
| 20260506092521 | 45 | 0 | 0.0 | 0.0 | 0.00 | 0.00 | 0.00 | 94 | 1018.5 |
| 20260506092019 | 45 | 0 | 0.0 | 0.0 | 0.00 | 0.00 | 0.00 | 94 | 1018.4 |
| 20260506091541 | 44 | 0 | 0.0 | 0.0 | 0.00 | 0.00 | 0.00 | 93 | 1018.4 |
| 20260506091021 | 45 | 0 | 0.0 | 0.0 | 0.00 | 0.00 | 0.00 | 93 | 1018.4 |
| 20260506090520 | 45 | 0 | 0.0 | 0.0 | 0.00 | 0.00 | 0.00 | 94 | 1018.4 |
| 20260506090042 | 45 | 0 | 0.0 | 0.0 | 0.00 | 0.00 | 0.00 | 93 | 1018.5 |
| 20260506085520 | 45 | 0 | 0.0 | 0.0 | 0.00 | 0.00 | 0.00 | 93 | 1018.5 |
| 20260506085020 | 45 | 0 | 0.0 | 0.0 | 0.00 | 0.00 | 0.00 | 93 | 1018.5 |
| 20260506084612 | 45 | 0 | 0.0 | 0.0 | 0.00 | 0.00 | 0.00 | 93 | 1018.4 |
| 20260506084020 | 45 | 0 | 0.0 | 0.0 | 0.00 | 0.00 | 0.00 | 93 | 1018.4 |
| 20260506083519 | 46 | 0 | 0.0 | 0.0 | 0.00 | 0.00 | 0.00 | 93 | 1018.4 |
| 20260506083041 | 46 | 0 | 0.0 | 0.0 | 0.00 | 0.00 | 0.00 | 93 | 1018.4 |
| 20260506082519 | 46 | 0 | 0.0 | 1.0 | 0.00 | 0.00 | 0.00 | 93 | 1018.4 |
| 20260506082019 | 46 | 0 | 0.0 | 1.0 | 0.00 | 0.00 | 0.00 | 93 | 1018.5 |
| 20260506081549 | 46 | 0 | 0.0 | 1.0 | 0.00 | 0.00 | 0.00 | 93 | 1018.5 |
| 20260506081018 | 46 | 0 | 0.0 | 1.0 | 0.00 | 0.00 | 0.00 | 93 | 1018.4 |
| 20260506080518 | 46 | 0 | 0.0 | 2.0 | 0.00 | 0.00 | 0.00 | 93 | 1018.4 |
| 20260506073519 | 47 | 0 | 0.0 | 2.0 | 0.00 | 0.00 | 0.00 | 92 | 1018.2 |
| 20260506073034 | 47 | 0 | 0.0 | 2.0 | 0.00 | 0.00 | 0.00 | 92 | 1018.2 |
| 20260506072520 | 47 | 0 | 0.0 | 2.0 | 0.00 | 0.00 | 0.00 | 93 | 1018.2 |
| 20260506072019 | 46 | 302 | 0.0 | 3.0 | 0.00 | 0.00 | 0.00 | 92 | 1018.1 |
| 20260506071541 | 46 | 0 | 1.0 | 3.0 | 0.00 | 0.00 | 0.00 | 91 | 1018.0 |
| 20260506071020 | 47 | 0 | 0.0 | 0.0 | 0.00 | 0.00 | 0.00 | 92 | 1018.0 |
| 20260506070520 | 47 | 0 | 0.0 | 0.0 | 0.00 | 0.00 | 0.00 | 92 | 1017.9 |
| 20260506062019 | 49 | 321 | 0.0 | 2.0 | 0.00 | 0.00 | 0.00 | 91 | 1017.4 |
| 20260506061544 | 49 | 281 | 0.0 | 2.0 | 0.00 | 0.00 | 0.00 | 90 | 1017.4 |
| 20260506061022 | 49 | 0 | 0.0 | 2.0 | 0.00 | 0.00 | 0.00 | 90 | 1017.3 |
| 20260506060521 | 49 | 0 | 0.0 | 4.0 | 0.00 | 0.00 | 0.00 | 90 | 1017.3 |
| 20260506051018 | 50 | 0 | 0.0 | 1.0 | 0.00 | 0.00 | 0.00 | 89 | 1016.9 |
| 20260506050518 | 50 | 0 | 0.0 | 3.0 | 0.00 | 0.00 | 0.00 | 88 | 1016.9 |
| 20260506045019 | 51 | 0 | 0.0 | 2.0 | 0.00 | 0.00 | 0.00 | 86 | 1016.6 |
| 20260506044540 | 52 | 0 | 0.0 | 2.0 | 0.00 | 0.00 | 0.00 | 85 | 1016.7 |
| 20260506044019 | 52 | 304 | 0.0 | 3.0 | 0.00 | 0.00 | 0.00 | 86 | 1016.6 |
| 20260506043518 | 52 | 0 | 0.0 | 3.0 | 0.00 | 0.00 | 0.00 | 85 | 1016.5 |
| 20260506043044 | 52 | 277 | 1.0 | 3.0 | 0.00 | 0.00 | 0.00 | 86 | 1016.5 |
| 20260506042521 | 52 | 277 | 1.0 | 3.0 | 0.00 | 0.00 | 0.00 | 84 | 1016.4 |
| 20260506042021 | 53 | 0 | 0.0 | 1.0 | 0.00 | 0.00 | 0.00 | 86 | 1016.3 |
| 20260506041535 | 52 | 0 | 0.0 | 0.0 | 0.00 | 0.00 | 0.00 | 85 | 1016.3 |
| 20260506041020 | 53 | 0 | 0.0 | 1.0 | 0.00 | 0.00 | 0.00 | 85 | 1016.2 |
| 20260506040518 | 53 | 0 | 0.0 | 1.0 | 0.00 | 0.00 | 0.00 | 84 | 1016.2 |
| 20260506040046 | 53 | 277 | 0.0 | 1.0 | 0.00 | 0.00 | 0.00 | 84 | 1016.1 |
| 20260506035518 | 53 | 0 | 0.0 | 1.0 | 0.00 | 0.00 | 0.00 | 83 | 1016.1 |
| 20260506035019 | 53 | 0 | 0.0 | 1.0 | 0.00 | 0.00 | 0.00 | 83 | 1016.0 |
| 20260506034541 | 53 | 0 | 0.0 | 1.0 | 0.00 | 0.00 | 0.00 | 82 | 1015.9 |
| 20260506034019 | 54 | 0 | 0.0 | 4.0 | 0.00 | 0.00 | 0.00 | 82 | 1015.8 |
| 20260506033521 | 54 | 0 | 1.0 | 5.0 | 0.00 | 0.00 | 0.00 | 81 | 1015.7 |
| 20260506033040 | 55 | 277 | 2.0 | 5.0 | 0.00 | 0.00 | 0.00 | 81 | 1015.7 |
| 20260506032517 | 55 | 228 | 2.0 | 5.0 | 0.00 | 0.00 | 0.00 | 81 | 1015.7 |
| 20260506032019 | 55 | 0 | 0.0 | 6.0 | 0.00 | 0.00 | 0.00 | 81 | 1015.5 |
| 20260506031542 | 55 | 273 | 1.0 | 6.0 | 0.00 | 0.00 | 0.00 | 80 | 1015.4 |
| 20260506031017 | 55 | 272 | 2.0 | 6.0 | 0.00 | 0.00 | 0.00 | 80 | 1015.2 |
| 20260506030521 | 55 | 273 | 2.0 | 6.0 | 0.00 | 0.00 | 0.00 | 79 | 1015.1 |
| 20260506030036 | 56 | 254 | 2.0 | 6.0 | 0.00 | 0.00 | 0.00 | 78 | 1015.0 |
| 20260506025520 | 56 | 229 | 3.0 | 9.0 | 0.00 | 0.00 | 0.00 | 77 | 1014.9 |
| 20260506025021 | 57 | 272 | 3.0 | 9.0 | 0.00 | 0.00 | 0.00 | 76 | 1014.8 |
| 20260506024537 | 57 | 256 | 5.0 | 9.0 | 0.00 | 0.00 | 0.00 | 75 | 1014.8 |
| 20260506024018 | 57 | 271 | 4.0 | 9.0 | 0.00 | 0.00 | 0.00 | 73 | 1014.7 |
| 20260506023520 | 58 | 279 | 4.0 | 8.0 | 0.00 | 0.00 | 0.00 | 72 | 1014.7 |
| 20260506023100 | 58 | 270 | 4.0 | 10.0 | 0.00 | 0.00 | 0.00 | 71 | 1014.7 |
| 20260506022519 | 59 | 234 | 5.0 | 10.0 | 0.00 | 0.00 | 0.00 | 70 | 1014.7 |
| 20260506022026 | 59 | 240 | 4.0 | 9.0 | 0.00 | 0.00 | 0.00 | 69 | 1014.6 |
| 20260506021601 | 59 | 254 | 5.0 | 11.0 | 0.00 | 0.00 | 0.00 | 69 | 1014.5 |
| 20260506021023 | 60 | 277 | 4.0 | 11.0 | 0.00 | 0.00 | 0.00 | 68 | 1014.5 |
| 20260506020517 | 60 | 270 | 5.0 | 9.0 | 0.00 | 0.00 | 0.00 | 69 | 1014.4 |
| 20260506020034 | 60 | 260 | 4.0 | 11.0 | 0.00 | 0.00 | 0.00 | 69 | 1014.4 |
| 20260506015523 | 60 | 264 | 5.0 | 11.0 | 0.00 | 0.00 | 0.00 | 69 | 1014.4 |
| 20260506015018 | 60 | 215 | 6.0 | 13.0 | 0.00 | 0.00 | 0.00 | 68 | 1014.5 |
| 20260506014541 | 61 | 252 | 7.0 | 13.0 | 0.00 | 0.00 | 0.00 | 68 | 1014.5 |
| 20260506014020 | 61 | 261 | 5.0 | 15.0 | 0.00 | 0.00 | 0.00 | 69 | 1014.5 |
| 20260506013520 | 61 | 257 | 6.0 | 15.0 | 0.00 | 0.00 | 0.00 | 70 | 1014.4 |
| 20260506013044 | 61 | 217 | 6.0 | 13.0 | 0.00 | 0.00 | 0.00 | 69 | 1014.5 |
| 20260506012519 | 61 | 281 | 5.0 | 13.0 | 0.00 | 0.00 | 0.00 | 69 | 1014.4 |
| 20260506012020 | 61 | 227 | 7.0 | 13.0 | 0.00 | 0.00 | 0.00 | 68 | 1014.5 |
| 20260506011537 | 61 | 236 | 6.0 | 12.0 | 0.00 | 0.00 | 0.00 | 69 | 1014.4 |
| 20260506011021 | 61 | 242 | 5.0 | 11.0 | 0.00 | 0.00 | 0.00 | 68 | 1014.5 |
| 20260506010519 | 61 | 256 | 6.0 | 13.0 | 0.00 | 0.00 | 0.00 | 68 | 1014.5 |
| 20260506010036 | 61 | 245 | 6.0 | 13.0 | 0.00 | 0.00 | 0.00 | 69 | 1014.5 |
| 20260506005521 | 61 | 227 | 6.0 | 12.0 | 0.00 | 0.00 | 0.00 | 68 | 1014.4 |
| 20260506005025 | 61 | 275 | 6.0 | 12.0 | 0.00 | 0.00 | 0.00 | 67 | 1014.5 |
| 20260506004535 | 61 | 259 | 5.0 | 13.0 | 0.00 | 0.00 | 0.00 | 68 | 1014.5 |
| 20260506004021 | 61 | 220 | 7.0 | 13.0 | 0.00 | 0.00 | 0.00 | 67 | 1014.4 |
| 20260506003520 | 61 | 241 | 7.0 | 14.0 | 0.00 | 0.00 | 0.00 | 67 | 1014.4 |
| 20260506003041 | 61 | 265 | 6.0 | 14.0 | 0.00 | 0.00 | 0.00 | 68 | 1014.3 |
| 20260506002520 | 61 | 236 | 7.0 | 14.0 | 0.00 | 0.00 | 0.00 | 67 | 1014.4 |
| 20260506002024 | 62 | 259 | 7.0 | 13.0 | 0.00 | 0.00 | 0.00 | 67 | 1014.4 |
| 20260506001541 | 62 | 229 | 5.0 | 12.0 | 0.00 | 0.00 | 0.00 | 68 | 1014.4 |
| 20260506001020 | 62 | 270 | 5.0 | 13.0 | 0.00 | 0.00 | 0.00 | 67 | 1014.3 |
| 20260506000523 | 62 | 212 | 7.0 | 13.0 | 0.00 | 0.00 | 0.00 | 68 | 1014.3 |
| 20260506000040 | 63 | 260 | 6.0 | 13.0 | 0.00 | 0.00 | 0.00 | 67 | 1014.3 |
| 20260505235523 | 63 | 252 | 6.0 | 12.0 | 0.00 | 0.00 | 0.00 | 66 | 1014.3 |
| 20260505235023 | 63 | 240 | 5.0 | 13.0 | 0.00 | 0.00 | 0.00 | 67 | 1014.2 |
| 20260505234536 | 64 | 274 | 6.0 | 13.0 | 0.00 | 0.00 | 0.00 | 66 | 1014.1 |
| 20260505234022 | 64 | 227 | 6.0 | 12.0 | 0.00 | 0.00 | 0.00 | 65 | 1014.2 |
| 20260505233523 | 64 | 265 | 6.0 | 12.0 | 0.00 | 0.00 | 0.00 | 63 | 1014.2 |
| 20260505233040 | 64 | 217 | 5.0 | 12.0 | 0.00 | 0.00 | 0.00 | 64 | 1014.2 |
| 20260505232522 | 65 | 222 | 3.0 | 15.0 | 0.00 | 0.00 | 0.00 | 62 | 1014.2 |
| 20260505232026 | 65 | 244 | 6.0 | 15.0 | 0.00 | 0.00 | 0.00 | 62 | 1014.3 |
| 20260505231556 | 66 | 215 | 5.0 | 13.0 | 0.00 | 0.00 | 0.00 | 62 | 1014.2 |
| 20260505231025 | 65 | 163 | 6.0 | 10.0 | 0.00 | 0.00 | 0.00 | 60 | 1014.2 |
| 20260505230524 | 66 | 271 | 3.0 | 9.0 | 0.00 | 0.00 | 0.00 | 62 | 1014.2 |
| 20260505230041 | 65 | 272 | 4.0 | 9.0 | 0.00 | 0.00 | 0.00 | 61 | 1014.2 |
| 20260505225522 | 64 | 238 | 3.0 | 8.0 | 0.00 | 0.00 | 0.00 | 62 | 1014.3 |
| 20260505225022 | 64 | 209 | 3.0 | 12.0 | 0.00 | 0.00 | 0.00 | 64 | 1014.4 |
| 20260505224543 | 65 | 236 | 7.0 | 13.0 | 0.00 | 0.00 | 0.00 | 62 | 1014.5 |
| 20260505224020 | 66 | 185 | 6.0 | 13.0 | 0.00 | 0.00 | 0.00 | 65 | 1014.4 |
| 20260505223520 | 63 | 192 | 4.0 | 10.0 | 0.00 | 0.00 | 0.00 | 64 | 1014.5 |
| 20260505223044 | 64 | 240 | 5.0 | 10.0 | 0.00 | 0.00 | 0.00 | 64 | 1014.6 |
| 20260505222521 | 63 | 213 | 5.0 | 10.0 | 0.00 | 0.00 | 0.00 | 65 | 1014.6 |
| 20260505222025 | 63 | 217 | 6.0 | 10.0 | 0.00 | 0.00 | 0.00 | 65 | 1014.7 |
| 20260505221542 | 64 | 230 | 5.0 | 10.0 | 0.00 | 0.00 | 0.00 | 62 | 1014.7 |
| 20260505221022 | 64 | 254 | 5.0 | 10.0 | 0.00 | 0.00 | 0.00 | 62 | 1014.7 |
| 20260505220526 | 64 | 222 | 4.0 | 10.0 | 0.00 | 0.00 | 0.00 | 62 | 1014.9 |
| 20260505220042 | 64 | 272 | 3.0 | 10.0 | 0.00 | 0.00 | 0.00 | 64 | 1014.8 |
| 20260505215523 | 64 | 196 | 3.0 | 10.0 | 0.00 | 0.00 | 0.00 | 63 | 1014.8 |
| 20260505215020 | 64 | 212 | 4.0 | 10.0 | 0.00 | 0.00 | 0.00 | 63 | 1014.9 |
| 20260505214555 | 64 | 246 | 4.0 | 11.0 | 0.00 | 0.00 | 0.00 | 61 | 1015.0 |
| 20260505214021 | 64 | 278 | 4.0 | 12.0 | 0.00 | 0.00 | 0.00 | 63 | 1015.0 |
| 20260505213521 | 64 | 274 | 5.0 | 12.0 | 0.00 | 0.00 | 0.00 | 64 | 1015.0 |
| 20260505213044 | 63 | 215 | 7.0 | 13.0 | 0.00 | 0.00 | 0.00 | 65 | 1015.1 |
| 20260505212520 | 62 | 217 | 6.0 | 13.0 | 0.00 | 0.00 | 0.00 | 65 | 1015.2 |
| 20260505212023 | 63 | 223 | 5.0 | 11.0 | 0.00 | 0.00 | 0.00 | 65 | 1015.2 |
| 20260505211539 | 63 | 252 | 5.0 | 11.0 | 0.00 | 0.00 | 0.00 | 68 | 1015.2 |
| 20260505211021 | 63 | 259 | 4.0 | 11.0 | 0.00 | 0.00 | 0.00 | 66 | 1015.3 |
| 20260505210557 | 62 | 275 | 6.0 | 12.0 | 0.00 | 0.00 | 0.00 | 67 | 1015.3 |
| 20260505210043 | 62 | 274 | 5.0 | 12.0 | 0.00 | 0.00 | 0.00 | 67 | 1015.3 |
| 20260505205525 | 62 | 229 | 4.0 | 11.0 | 0.00 | 0.00 | 0.00 | 68 | 1015.2 |
| 20260505205022 | 61 | 229 | 7.0 | 12.0 | 0.00 | 0.00 | 0.00 | 68 | 1015.2 |
| 20260505204540 | 61 | 219 | 7.0 | 12.0 | 0.00 | 0.00 | 0.00 | 67 | 1015.3 |
| 20260505204022 | 62 | 207 | 3.0 | 9.0 | 0.00 | 0.00 | 0.00 | 68 | 1015.2 |
| 20260505203520 | 62 | 165 | 4.0 | 9.0 | 0.00 | 0.00 | 0.00 | 67 | 1015.2 |
| 20260505203054 | 62 | 240 | 4.0 | 12.0 | 0.00 | 0.00 | 0.00 | 67 | 1015.2 |
| 20260505202520 | 62 | 236 | 6.0 | 12.0 | 0.00 | 0.00 | 0.00 | 67 | 1015.2 |
| 20260505202019 | 62 | 250 | 5.0 | 10.0 | 0.00 | 0.00 | 0.00 | 68 | 1015.2 |
| 20260505201542 | 62 | 227 | 3.0 | 9.0 | 0.00 | 0.00 | 0.00 | 67 | 1015.2 |
| 20260505201023 | 62 | 246 | 5.0 | 9.0 | 0.00 | 0.00 | 0.00 | 69 | 1015.3 |
| 20260505200522 | 62 | 227 | 4.0 | 10.0 | 0.00 | 0.00 | 0.00 | 68 | 1015.3 |
| 20260505200049 | 62 | 273 | 3.0 | 10.0 | 0.00 | 0.00 | 0.00 | 69 | 1015.2 |
| 20260505195524 | 62 | 233 | 4.0 | 9.0 | 0.00 | 0.00 | 0.00 | 69 | 1015.2 |
| 20260505195021 | 61 | 239 | 3.0 | 9.0 | 0.00 | 0.00 | 0.00 | 69 | 1015.2 |
| 20260505194543 | 62 | 261 | 3.0 | 10.0 | 0.00 | 0.00 | 0.00 | 68 | 1015.2 |
| 20260505194024 | 62 | 234 | 5.0 | 12.0 | 0.00 | 0.00 | 0.00 | 69 | 1015.3 |
| 20260505193522 | 62 | 263 | 5.0 | 12.0 | 0.00 | 0.00 | 0.00 | 70 | 1015.3 |
| 20260505193041 | 61 | 268 | 4.0 | 11.0 | 0.00 | 0.00 | 0.00 | 70 | 1015.3 |
| 20260505192523 | 61 | 219 | 5.0 | 9.0 | 0.00 | 0.00 | 0.00 | 68 | 1015.2 |
| 20260505192022 | 61 | 276 | 3.0 | 7.0 | 0.00 | 0.00 | 0.00 | 67 | 1015.3 |
| 20260505191547 | 61 | 274 | 1.0 | 7.0 | 0.00 | 0.00 | 0.00 | 66 | 1015.3 |
| 20260505191023 | 61 | 200 | 1.0 | 6.0 | 0.00 | 0.00 | 0.00 | 65 | 1015.3 |
| 20260505190522 | 61 | 220 | 1.0 | 6.0 | 0.00 | 0.00 | 0.00 | 65 | 1015.4 |
| 20260505190039 | 61 | 123 | 3.0 | 6.0 | 0.00 | 0.00 | 0.00 | 65 | 1015.3 |
| 20260505185521 | 61 | 0 | 2.0 | 6.0 | 0.00 | 0.00 | 0.00 | 63 | 1015.2 |
| 20260505185022 | 62 | 235 | 0.0 | 4.0 | 0.00 | 0.00 | 0.00 | 65 | 1015.2 |
| 20260505184546 | 62 | 246 | 1.0 | 5.0 | 0.00 | 0.00 | 0.00 | 64 | 1015.2 |
| 20260505184026 | 61 | 0 | 1.0 | 16.0 | 0.00 | 0.00 | 0.00 | 64 | 1015.3 |
| 20260505183522 | 61 | 129 | 2.0 | 16.0 | 0.00 | 0.00 | 0.00 | 65 | 1015.2 |
| 20260505183046 | 61 | 26 | 2.0 | 7.0 | 0.00 | 0.00 | 0.00 | 66 | 1015.2 |
| 20260505182521 | 61 | 342 | 3.0 | 9.0 | 0.00 | 0.00 | 0.00 | 66 | 1015.2 |
| 20260505182022 | 60 | 216 | 2.0 | 9.0 | 0.00 | 0.00 | 0.00 | 64 | 1015.3 |
| 20260505181546 | 62 | 252 | 1.0 | 4.0 | 0.00 | 0.00 | 0.00 | 65 | 1015.3 |
| 20260505181023 | 60 | 122 | 1.0 | 6.0 | 0.00 | 0.00 | 0.00 | 68 | 1015.3 |
| 20260505180522 | 60 | 0 | 1.0 | 6.0 | 0.00 | 0.00 | 0.00 | 69 | 1015.2 |
| 20260505180047 | 59 | 0 | 2.0 | 6.0 | 0.00 | 0.00 | 0.00 | 67 | 1015.2 |
| 20260505175521 | 59 | 119 | 1.0 | 6.0 | 0.00 | 0.00 | 0.00 | 68 | 1015.2 |
| 20260505175022 | 59 | 66 | 2.0 | 5.0 | 0.00 | 0.00 | 0.00 | 69 | 1015.1 |
| 20260505174541 | 59 | 77 | 2.0 | 5.0 | 0.00 | 0.00 | 0.00 | 69 | 1015.2 |
| 20260505174022 | 60 | 73 | 1.0 | 5.0 | 0.00 | 0.00 | 0.00 | 68 | 1015.2 |
| 20260505173521 | 59 | 17 | 1.0 | 5.0 | 0.00 | 0.00 | 0.00 | 70 | 1015.1 |
| 20260505173049 | 59 | 119 | 1.0 | 3.0 | 0.00 | 0.00 | 0.00 | 71 | 1015.1 |
| 20260505172521 | 59 | 343 | 1.0 | 8.0 | 0.00 | 0.00 | 0.00 | 69 | 1015.1 |
| 20260505172021 | 59 | 0 | 1.0 | 8.0 | 0.00 | 0.00 | 0.00 | 71 | 1015.2 |
| 20260505171547 | 58 | 279 | 3.0 | 8.0 | 0.00 | 0.00 | 0.00 | 72 | 1015.3 |
| 20260505171021 | 57 | 286 | 2.0 | 6.0 | 0.00 | 0.00 | 0.00 | 73 | 1015.3 |
| 20260505170521 | 57 | 54 | 1.0 | 6.0 | 0.00 | 0.00 | 0.00 | 73 | 1015.3 |
| 20260505170101 | 57 | 107 | 2.0 | 5.0 | 0.00 | 0.00 | 0.00 | 74 | 1015.4 |
| 20260505165520 | 56 | 207 | 1.0 | 4.0 | 0.00 | 0.00 | 0.00 | 74 | 1015.4 |
| 20260505165020 | 56 | 159 | 2.0 | 7.0 | 0.00 | 0.00 | 0.00 | 74 | 1015.4 |
| 20260505164542 | 56 | 90 | 2.0 | 7.0 | 0.00 | 0.00 | 0.00 | 75 | 1015.3 |
| 20260505164020 | 56 | 0 | 3.0 | 7.0 | 0.00 | 0.00 | 0.00 | 76 | 1015.3 |
| 20260505163519 | 56 | 76 | 1.0 | 5.0 | 0.00 | 0.00 | 0.00 | 76 | 1015.3 |
| 20260505163039 | 55 | 203 | 3.0 | 5.0 | 0.00 | 0.00 | 0.00 | 75 | 1015.2 |
| 20260505162519 | 56 | 227 | 0.0 | 5.0 | 0.00 | 0.00 | 0.00 | 77 | 1015.2 |
| 20260505162020 | 55 | 146 | 1.0 | 5.0 | 0.00 | 0.00 | 0.00 | 80 | 1015.2 |
| 20260505161543 | 54 | 0 | 1.0 | 5.0 | 0.00 | 0.00 | 0.00 | 79 | 1015.1 |
| 20260505161022 | 53 | 132 | 2.0 | 5.0 | 0.00 | 0.00 | 0.00 | 80 | 1015.1 |
| 20260505160522 | 53 | 119 | 1.0 | 5.0 | 0.00 | 0.00 | 0.00 | 81 | 1015.1 |
| 20260505153042 | 51 | 0 | 0.0 | 1.0 | 0.00 | 0.00 | 0.00 | 87 | 1015.2 |
| 20260505152519 | 51 | 0 | 0.0 | 0.0 | 0.00 | 0.00 | 0.00 | 88 | 1015.1 |
| 20260505152021 | 51 | 0 | 0.0 | 0.0 | 0.00 | 0.00 | 0.00 | 87 | 1015.1 |
| 20260505151557 | 50 | 0 | 0.0 | 1.0 | 0.00 | 0.00 | 0.00 | 88 | 1015.0 |
| 20260505151020 | 50 | 0 | 0.0 | 1.0 | 0.00 | 0.00 | 0.00 | 89 | 1014.9 |
| 20260505150523 | 50 | 0 | 0.0 | 1.0 | 0.00 | 0.00 | 0.00 | 90 | 1014.9 |
| 20260505140520 | 46 | 54 | 0.0 | 2.0 | 0.00 | 0.00 | 0.00 | 93 | 1014.7 |
| 20260505125024 | 44 | 0 | 0.0 | 1.0 | 0.00 | 0.00 | 0.00 | 91 | 1014.2 |
| 20260505124547 | 44 | 0 | 0.0 | 1.0 | 0.00 | 0.00 | 0.00 | 90 | 1014.3 |
| 20260505124025 | 45 | 0 | 0.0 | 1.0 | 0.00 | 0.00 | 0.00 | 90 | 1014.2 |
| 20260505123521 | 45 | 334 | 0.0 | 1.0 | 0.00 | 0.00 | 0.00 | 90 | 1014.2 |
| 20260505123045 | 45 | 0 | 0.0 | 1.0 | 0.00 | 0.00 | 0.00 | 89 | 1014.2 |
| 20260505122519 | 45 | 0 | 0.0 | 1.0 | 0.00 | 0.00 | 0.00 | 90 | 1014.2 |
| 20260505122022 | 46 | 0 | 0.0 | 2.0 | 0.00 | 0.00 | 0.00 | 89 | 1014.1 |
| 20260505121553 | 46 | 0 | 0.0 | 2.0 | 0.00 | 0.00 | 0.00 | 89 | 1014.1 |
| 20260505121020 | 46 | 0 | 0.0 | 2.0 | 0.00 | 0.00 | 0.00 | 89 | 1014.1 |
| 20260505120522 | 46 | 0 | 0.0 | 2.0 | 0.00 | 0.00 | 0.00 | 89 | 1014.0 |
| 20260505120044 | 46 | 0 | 0.0 | 2.0 | 0.00 | 0.00 | 0.00 | 89 | 1014.2 |
| 20260505115522 | 47 | 0 | 0.0 | 2.0 | 0.00 | 0.00 | 0.00 | 89 | 1014.0 |